Weather History for Capo Mele, Italy

Change the Weather History Date:

Tuesday, December 4, 2012

  Actual Average Record
Temperature  
Mean Temperature 54 °F -  
Max Temperature 59 °F 52 °F 62 °F (2002)
Min Temperature 48 °F 45 °F 41 °F (2010)
Degree Days  
Heating Degree Days 12    
Growing Degree Days 4 (Base 50)    
Moisture  
Dew Point 38 °F    
Average Humidity 63    
Maximum Humidity 82    
Minimum Humidity 14    
Precipitation  
Precipitation 0.00 in 0.09 in - ()
Sea Level Pressure  
Sea Level Pressure 29.64 in    
Wind  
Wind Speed 6 mph ()    
Max Wind Speed 13 mph    
Max Gust Speed -    
Visibility 12.0 miles    
Events      
Averages and records for this station are not official NWS values.
T = Trace of Precipitation, MM = Missing Value Source: Averaged Metar Reports

Daily Weather History Graph

Daily Weather History Graph

Search for Another Location

Airport:

Trip Planner

Search our weather history database for the weather conditions in past years. The results will help you decide how hot, cold, wet, or windy it might be!

Date:

Astronomy

Dec. 04, 2012 Rise Set
Actual Time 7:45 AM CET 4:49 PM CET
Civil Twilight 7:12 AM CET 5:22 PM CET
Nautical Twilight 6:36 AM CET 5:58 PM CET
Astronomical Twilight 6:01 AM CET 6:33 PM CET
Moon 10:28 PM CET (12/4) 11:24 AM CET (12/4)
Length of Visible Light 10h 09m
Length of Day
9h 04m
Waning Gibbous, 72% of the Moon is Illuminated
Dec 4
Waning Gibbous
Dec 6
Last Quarter
Dec 13
New
Dec 20
First Quarter
Dec 28
Full

Hourly Weather History & Observations

Time (CET) Temp. Dew Point Humidity Pressure Visibility Wind Dir Wind Speed Gust Speed Precip Events Conditions
12:55 AM 48.2 °F 41.0 °F 76% 29.89 in - North 3.5 mph - N/A   Clear
1:00 AM 48 °F 40 °F 66% 29.90 in 31 mi North 3.5 mph - -  
1:55 AM 48.2 °F 41.0 °F 76% 29.86 in - NW 2.3 mph - N/A   Clear
2:55 AM 48.2 °F 39.2 °F 71% 29.83 in - SSW 10.4 mph - N/A   Clear
3:55 AM 48.2 °F 39.2 °F 71% 29.80 in - North 2.3 mph - N/A   Clear
4:55 AM 48.2 °F 39.2 °F 71% 29.74 in - WNW 6.9 mph - N/A   Clear
5:55 AM 48.2 °F 39.2 °F 71% 29.74 in - West 4.6 mph - N/A   Clear
6:55 AM 48.2 °F 37.4 °F 66% 29.68 in - SSE 2.3 mph - N/A   Clear
7:00 AM 48 °F 38 °F 58% 29.70 in 31 mi SSE 2.3 mph - -   Scattered Clouds
7:55 AM 48.2 °F 41.0 °F 76% 29.65 in - North 3.5 mph - N/A   Clear
8:55 AM 48.2 °F 42.8 °F 82% 29.65 in - NNE 6.9 mph - N/A   Clear
9:55 AM 50.0 °F 42.8 °F 76% 29.65 in - North 9.2 mph - N/A   Clear
10:55 AM 50.0 °F 44.6 °F 82% 29.59 in - North 9.2 mph - N/A   Clear
11:55 AM 50.0 °F 42.8 °F 76% 29.59 in - North 12.7 mph - N/A   Clear
12:55 PM 51.8 °F 44.6 °F 76% 29.56 in - North 8.1 mph - N/A   Clear
1:00 PM 52 °F 44 °F 68% 29.60 in 12 mi North 8.1 mph - -   Clear
1:55 PM 55.4 °F 42.8 °F 63% 29.53 in - East 3.5 mph - N/A   Clear
2:55 PM 57.2 °F 42.8 °F 59% 29.53 in - NE 9.2 mph - N/A   Clear
3:55 PM 59.0 °F 46.4 °F 63% 29.50 in - NE 4.6 mph - N/A   Clear
4:55 PM 55.4 °F 44.6 °F 67% 29.50 in - North 11.5 mph - N/A   Clear
5:55 PM 51.8 °F 46.4 °F 82% 29.50 in - NNE 8.1 mph - N/A   Clear
6:55 PM 51.8 °F 46.4 °F 82% 29.50 in - NW 12.7 mph - N/A   Clear
7:00 PM 52 °F 47 °F 76% 29.54 in 12 mi NW 12.7 mph - -   Partly Cloudy
7:55 PM 53.6 °F 26.6 °F 35% 29.53 in - West 11.5 mph - N/A   Clear
8:55 PM 53.6 °F 17.6 °F 24% 29.56 in - West 8.1 mph - N/A   Clear
9:55 PM 53.6 °F 17.6 °F 24% 29.56 in - West 2.3 mph - N/A   Clear
10:55 PM 53.6 °F 10.4 °F 18% 29.59 in - WNW 12.7 mph - N/A   Clear
11:55 PM 53.6 °F 5.0 °F 14% 29.59 in - WNW 8.1 mph - N/A   Clear